Location: Unspecified
(35.3830°S, 0.0000°E)
Time: 23:18:57
(UTC+00:00)

Tiangong 2 - Visible Passes

Search period start: 19 May 2019 00:00
Search period end: 29 May 2019 00:00
Orbit: 378 x 387 km, 42.8° (Epoch: 19 May)

Date Brightness Start Highest point End Pass type
(mag) Time Alt. Az. Time Alt. Az. Time Alt. Az.
22 May 4.3 05:50:56 10° N 05:52:33 13° NE 05:54:11 10° ENE visible
23 May 2.1 06:25:48 10° NW 06:28:55 49° NNE 06:32:04 10° ESE visible
24 May 3.3 05:26:19 10° NNW 05:29:00 25° NE 05:31:43 10° E visible
25 May 4.4 04:29:55 12° NE 04:29:55 12° NE 04:30:40 10° ENE visible
25 May 1.1 06:02:17 10° WNW 06:05:30 87° SSW 06:08:45 10° ESE visible
26 May 2.0 05:05:41 46° NE 05:05:41 46° NE 05:08:37 10° ESE visible
27 May 1.4 05:41:12 36° WSW 05:42:07 50° SSW 05:45:17 10° SE visible
28 May 3.8 04:44:20 18° ESE 04:44:20 18° ESE 04:45:15 10° ESE visible
28 May 2.5 06:16:32 12° WSW 06:19:00 25° S 06:21:47 10° SE visible
